Flag for Norway Weather past 2 weeks in Langesund, Norway

Now
39 °F

Chilly.


Feels Like: 39 °F
Forecast: 19 / 28 °F
Wind: 2 mph from West

Location: Jomfruland Fyr

Current Time: Jan 26, 2015 at 4:02:25 PM

Latest Report: Jan 26, 2015 at 3:00 PM


Visibility: N/A

Pressure: 29.64 "Hg

Humidity: 96%

Dew point: 38 °F

Location of LangesundLocation

Historic Weather in Langesund — Graph

°F

Langesund temperature yesterday

Maximum temperature yesterday: 36 °F (at 10:00 PM)
Minimum temperature yesterday: 28 °F (at 4:00 AM)
Average temperature yesterday: 31 °F

Past Weeks' High & Low Weather Summary

 TemperatureHumidityPressure
High46 °F (Jan 12, 3:00 PM)97% (Jan 20, 9:00 AM)30.26 "Hg (Jan 20, 9:00 AM)
Low20 °F (Jan 23, 9:00 AM)48% (Jan 11, 2:00 PM)28.79 "Hg (Jan 16, 6:00 AM)
Average36 °F84%29.65 "Hg
* Reported Jan 11 2:00 PM — Jan 26 2:00 PM, Langesund, Weather by CustomWeather, © 2014

Note: Actual official high and low records may vary slightly from our data, if they occured in-between our weather recording intervals... More about our weather records

Advertising

Langesund weather history for previous 24 hours

 ConditionsComfort  
Time TempWeatherWind HumidityBarometerVisibility
2:00 PM
Jan 26
39 °FChilly.2 mph96%29.65 "HgN/A
1:00 PM39 °FChilly.1 mph96%29.65 "HgN/A
12:00 PM39 °FChilly.3 mph97%29.67 "HgN/A
11:00 AM39 °FChilly.3 mph97%29.69 "HgN/A
10:00 AM40 °FQuite cool.2 mph96%29.69 "HgN/A
9:00 AM41 °FQuite cool.5 mph96%29.71 "HgN/A
8:00 AM41 °FQuite cool.8 mph96%29.74 "HgN/A
7:00 AM41 °FQuite cool.9 mph96%29.75 "HgN/A
6:00 AM41 °FQuite cool.10 mph96%29.77 "HgN/A
5:00 AM41 °FQuite cool.9 mph96%29.81 "HgN/A
4:00 AM41 °FQuite cool.10 mph95%29.84 "HgN/A
3:00 AM41 °FQuite cool.12 mph96%29.88 "HgN/A
2:00 AM41 °FQuite cool.12 mph94%29.90 "HgN/A
1:00 AM40 °FQuite cool.10 mph94%29.93 "HgN/A
12:00 AM37 °FChilly.3 mph93%29.98 "HgN/A
11:00 PM
Jan 25
36 °FChilly.3 mph91%30.01 "HgN/A
10:00 PM36 °FChilly.5 mph83%30.04 "HgN/A
9:00 PM35 °FChilly.3 mph81%30.07 "HgN/A
8:00 PM33 °FChilly.1 mph89%30.09 "HgN/A
7:00 PM32 °FChilly.1 mph89%30.11 "HgN/A
6:00 PM32 °FChilly.1 mph85%30.11 "HgN/A
5:00 PM32 °FChilly.No wind82%30.12 "HgN/A
4:00 PM33 °FChilly.1 mph74%30.12 "HgN/A
Weather by CustomWeather, © 2014

See weather overviewHow to use our weather pages